Погода в Сулине

Россия / Ростовская область     48°54′37″N   40°07′33″E
темп.,
°C
ветер,
м/с
пор.,
м/с
влажн.,
%
обл.,
%
осадки,
мм/ч
давл.,
гПа
погр.,
м
17 апреля, сб
сб1700:00+10зюз3581100 0.3 1019365
03:00+9з128898 0.8 1018169
06:00+9зюз2786100 0.6 1018443
09:00+11з44665 1.3 1019739
12:00+14зюз56435 0.0 10201743
15:00+15зюз563711 0.0 10192010
18:00+14зюз454452 0.0 10191792
21:00+9з37641 0.0 1021192
18 апреля, вс
вс1800:00+7зсз22685 0.0 102121
03:00+7юв00685 0.0 102110
06:00+6ююв226963 0.0 102119
09:00+12ю335064 0.0 1021746
12:00+14ю234189 0.0 10201871
15:00+15ююв223899 0.0 10192072
18:00+15юв344395 0.0 1018459
21:00+12вюв355099 0.0 101992
19 апреля, пн
пн1900:00+11ю3566100 0.0 1018161
03:00+9в3882100 0.8 1018483
06:00+9св5891100 3.0 1017412
09:00+9всв5789100 3.4 1016510
12:00+9в5688100 0.7 1015517
15:00+11в3387100 0.7 1014507
18:00+11всв2284100 0.0 1014500
21:00+10всв2492100 0.1 1013142
20 апреля, вт
вт2000:00+10всв3595100 0.0 1011205
03:00+10в4896100 0.0 1010285
06:00+11всв51098100 0.4 1007398
09:00+12юв81595100 9.5 1004992
12:00+13вюв112085100 2.9 1002948
15:00+16ю111785100 3.4 10011115
18:00+14ю916717 0.1 10031380
21:00+11ю71287100 0.4 1005814
21 апреля, ср
ср2100:00+9ю111781100 0.4 10061306
03:00+9ююз101589100 0.5 1007850
06:00+9юз71284100 0.1 10111142
09:00+11зюз697482 0.5 10141149
12:00+12юз576498 0.1 10161157
15:00+14юз685797 0.6 10161371
18:00+13зюз475891 0.4 1018274
21:00+9ююз36737 0.4 102095